Weather History for YPPD - November, 2012

Change the Weather History Date:

Wednesday, November 7, 2012

  Actual Average Record
Temperature  
Mean Temperature 83 °F -  
Max Temperature 102 °F 97 °F 109 °F (2003)
Min Temperature 64 °F 71 °F 64 °F (2004)
Cooling Degree Days 18    
Growing Degree Days 33 (Base 50)    
Moisture  
Dew Point 48 °F    
Average Humidity 36    
Maximum Humidity 83    
Minimum Humidity 4    
Precipitation  
Precipitation 0.00 in 0.01 in - ()
Sea Level Pressure  
Sea Level Pressure 29.77 in    
Wind  
Wind Speed 10 mph ()    
Max Wind Speed 21 mph    
Max Gust Speed 29 mph    
Visibility 7.6 miles    
Events      
Averages and records for this station are not official NWS values.
T = Trace of Precipitation, MM = Missing Value Source: Averaged Metar Reports

Daily Weather History Graph

Daily Weather History Graph

Search for Another Location

Airport or City:

Trip Planner

Search our weather history database for the weather conditions in past years. The results will help you decide how hot, cold, wet, or windy it might be!

Date:

Astronomy

Nov. 07, 2012 Rise Set
Actual Time 5:20 AM AWST 6:18 PM AWST
Civil Twilight 4:57 AM AWST 6:41 PM AWST
Nautical Twilight 4:29 AM AWST 7:08 PM AWST
Astronomical Twilight 4:01 AM AWST 7:37 PM AWST
Moon 12:06 AM AWST (11/7) 11:51 AM AWST (11/7)
Length of Visible Light 13h 44m
Length of Day
12h 57m
Waning Gibbous, 48% of the Moon is Illuminated
Nov 7
Waning Gibbous
Nov 14
New
Nov 20
First Quarter
Nov 28
Full
Dec 6
Last Quarter

Hourly Weather History & Observations

Time (AWST) Temp. Heat Index Dew Point Humidity Pressure Visibility Wind Dir Wind Speed Gust Speed Precip Events Conditions
12:00 AM 70 °F - 58 °F 57% 29.78 in - West 8.1 mph - -  
12:00 AM 69.8 °F - 59.0 °F 68% 29.77 in 6.2 mi West 8.1 mph - N/A   Unknown
12:30 AM 69.8 °F - 55.4 °F 60% 29.77 in 6.2 mi WSW 6.9 mph - N/A   Unknown
1:00 AM 69.8 °F - 53.6 °F 56% 29.74 in 6.2 mi WSW 5.8 mph - N/A   Unknown
1:30 AM 69.8 °F - 50.0 °F 49% 29.74 in 6.2 mi South 3.5 mph - N/A   Unknown
2:00 AM 67 °F - 52 °F 48% 29.75 in - West 6.9 mph - -  
2:00 AM 68.0 °F - 51.8 °F 56% 29.74 in 6.2 mi West 6.9 mph - N/A   Unknown
2:30 AM 68.0 °F - 50.0 °F 52% 29.74 in 6.2 mi WSW 5.8 mph - N/A   Unknown
3:00 AM 67 °F - 48 °F 39% 29.76 in - SW 6.9 mph - -  
3:00 AM 68.0 °F - 48.2 °F 49% 29.74 in 6.2 mi SW 6.9 mph - N/A   Unknown
3:30 AM 66.2 °F - 50.0 °F 56% 29.74 in 6.2 mi SSW 4.6 mph - N/A   Unknown
4:00 AM 68.0 °F - 44.6 °F 43% 29.77 in 6.2 mi SSW 5.8 mph - N/A   Unknown
4:30 AM 68.0 °F - 44.6 °F 43% 29.77 in 6.2 mi SSW 5.8 mph - N/A   Unknown
5:00 AM 66 °F - 43 °F 32% 29.78 in - SW 8.1 mph - -  
5:00 AM 66.2 °F - 42.8 °F 43% 29.77 in 6.2 mi SW 8.1 mph - N/A   Unknown
5:30 AM 64.4 °F - 46.4 °F 52% 29.77 in 6.2 mi SSW 6.9 mph - N/A   Unknown
6:00 AM 68 °F - 47 °F 36% 29.81 in 19 mi SSE 5.8 mph - -   Partly Cloudy
6:00 AM 68.0 °F - 46.4 °F 46% 29.80 in - SSE 5.8 mph - N/A   Clear
6:30 AM 73.4 °F - 41.0 °F 31% 29.80 in - SE 8.1 mph - N/A   Clear
6:56 AM 82.4 °F - 35.6 °F 19% 29.80 in - SE 12.7 mph - N/A   Clear
7:00 AM 84.2 °F - 33.8 °F 16% 29.80 in - SE 13.8 mph - N/A   Clear
7:30 AM 89.6 °F - 26.6 °F 10% 29.83 in - SE 20.7 mph - N/A   Clear
8:00 AM 91 °F - 26 °F 4% 29.83 in - SE 20.7 mph - -  
8:00 AM 91.4 °F - 26.6 °F 10% 29.83 in - SE 20.7 mph - N/A   Clear
8:30 AM 93.2 °F - 26.6 °F 9% 29.83 in - ESE 18.4 mph - N/A   Clear
9:00 AM 94 °F - 25 °F 4% 29.83 in 19 mi ESE 18.4 mph - -   Partly Cloudy
9:00 AM 93.2 °F - 24.8 °F 9% 29.83 in - ESE 18.4 mph - N/A   Clear
9:30 AM 95.0 °F - 24.8 °F 8% 29.83 in - ESE 18.4 mph - N/A   Clear
10:00 AM 96.8 °F - 24.8 °F 8% 29.80 in - East 17.3 mph - N/A   Clear
10:30 AM 98.6 °F - 26.6 °F 8% 29.80 in - East 15.0 mph - N/A   Clear
10:41 AM 98.6 °F - 26.6 °F 8% 29.80 in - East 17.3 mph 28.8 mph N/A   Clear
11:00 AM 99 °F - 25 °F 4% 29.80 in - East 13.8 mph - -  
11:00 AM 98.6 °F - 24.8 °F 7% 29.80 in - East 13.8 mph - N/A   Clear
11:30 AM 100.4 °F - 30.2 °F 9% 29.77 in 6.2 mi ESE 13.8 mph - N/A   Unknown
12:00 PM 101 °F - 25 °F 4% 29.78 in 16 mi East 12.7 mph - -   Partly Cloudy
12:00 PM 102.2 °F - 24.8 °F 6% 29.77 in - East 12.7 mph - N/A   Clear
12:30 PM 98.6 °F - 39.2 °F 13% 29.77 in 6.2 mi NNE 19.6 mph - N/A   Unknown
1:00 PM 100.4 °F - 33.8 °F 10% 29.74 in - NNE 19.6 mph - N/A   Clear
1:30 PM 98.6 °F - 48.2 °F 18% 29.74 in - North 17.3 mph - N/A   Clear
2:00 PM 97 °F - 45 °F 9% 29.73 in - NNE 18.4 mph - -  
2:00 PM 96.8 °F - 44.6 °F 17% 29.71 in - NNE 18.4 mph - N/A   Clear
2:30 PM 95.0 °F 93.0 °F 55.4 °F 26% 29.71 in - North 17.3 mph - N/A   Clear
3:00 PM 94 °F - 58 °F 20% 29.72 in 19 mi North 17.3 mph - -   Smoke
3:00 PM 93.2 °F 91.9 °F 57.2 °F 30% 29.71 in - North 17.3 mph - N/A   Clear
3:30 PM 93.2 °F 91.9 °F 57.2 °F 30% 29.71 in 6.2 mi North 17.3 mph - N/A   Unknown
4:00 PM 91.4 °F 89.4 °F 55.4 °F 29% 29.71 in 6.2 mi NNW 17.3 mph - N/A   Unknown
4:30 PM 91.4 °F 89.1 °F 53.6 °F 28% 29.71 in 6.2 mi North 16.1 mph - N/A   Unknown
5:00 PM 89 °F - 55 °F 21% 29.72 in - North 15.0 mph - -  
5:00 PM 89.6 °F 87.7 °F 55.4 °F 31% 29.71 in 6.2 mi North 15.0 mph - N/A   Unknown
5:30 PM 87.8 °F 86.5 °F 57.2 °F 35% 29.71 in 6.2 mi North 12.7 mph - N/A   Unknown
6:00 PM 86 °F - 58 °F 29% 29.73 in - North 9.2 mph - -  
6:00 PM 86.0 °F 85.4 °F 59.0 °F 40% 29.71 in 6.2 mi North 9.2 mph - N/A   Unknown
6:30 PM 82.4 °F 82.9 °F 60.8 °F 48% 29.74 in 6.2 mi NW 8.1 mph - N/A   Unknown
7:00 PM 80.6 °F 82.3 °F 64.4 °F 58% 29.74 in 6.2 mi WNW 8.1 mph - N/A   Unknown
7:30 PM 78.8 °F - 64.4 °F 61% 29.77 in 6.2 mi West 5.8 mph - N/A   Unknown
8:00 PM 78 °F - 66 °F 59% 29.78 in - West 4.6 mph - -  
8:00 PM 77.0 °F - 66.2 °F 69% 29.77 in 6.2 mi West 4.6 mph - N/A   Unknown
8:30 PM 77.0 °F - 66.2 °F 69% 29.77 in 6.2 mi West 3.5 mph - N/A   Unknown
9:00 PM 76 °F - 63 °F 56% 29.78 in - West 4.6 mph - -  
9:00 PM 75.2 °F - 62.6 °F 65% 29.77 in 6.2 mi West 4.6 mph - N/A   Unknown
9:30 PM 75.2 °F - 62.6 °F 65% 29.77 in 6.2 mi West 4.6 mph - N/A   Unknown
10:00 PM 73.4 °F - 64.4 °F 73% 29.77 in 6.2 mi NNW 8.1 mph - N/A   Unknown
10:30 PM 77.0 °F - 71.6 °F 83% 29.77 in 6.2 mi West 10.4 mph - N/A   Unknown
11:00 PM 76 °F - 70 °F 77% 29.79 in - West 10.4 mph - -  
11:00 PM 75.2 °F - 69.8 °F 83% 29.77 in 6.2 mi West 10.4 mph - N/A   Unknown
11:30 PM 73.4 °F - 68.0 °F 83% 29.77 in 6.2 mi West 6.9 mph - N/A   Unknown